Location: Miss�
(46.9484°N, 0.1922°W)
Time: 09:02:03
(UTC+00:00)

Cosmos 2084 Rocket - Pass Details

Date: 02 March 2021
Orbit: 528 x 652 km, 62.8° (Epoch: 10 April)

Event Time Altitude Azimuth Distance (km) Brightness Sun altitude
Rises 18:14:49 0° 323° (NW) 2,788 7.4 -5.4°
Reaches altitude 10° 18:17:08 10° 331° (NNW) 1,908 6.4 -5.8°
Maximum altitude 18:21:12 39° 41° (NE) 907 4.1 -6.5°
Drops below altitude 10° 18:25:24 10° 111° (ESE) 1,973 5.6 -7.2°
Enters shadow 18:26:15 - 114° (ESE) 2,293 5.9 -7.3°
